EW8930 Weather Reports


time (UTC)temp
C
wind
direction
speed
KPH
gust
KPH
rain 1hr
cm
rain 24hr
cm
rain mn
cm
humidity
%
barometer
mb
20260504081550 10 198 16.1 25.7 0.00 0.00 0.00 70 1007.4
20260504050022 10 214 14.5 22.5 0.00 0.00 0.00 68 1009.8
20260504044532 10 210 14.5 20.9 0.00 0.00 0.00 68 1009.9
20260504043028 10 213 14.5 24.1 0.00 0.00 0.00 68 1010.1
20260504041517 10 217 11.3 32.2 0.00 0.00 0.00 68 1010.2
20260504040019 10 192 12.9 20.9 0.00 0.00 0.00 70 1010.5
20260504034511 10 194 12.9 24.1 0.00 0.00 0.00 71 1010.7
20260504033011 10 183 14.5 22.5 0.00 0.00 0.00 71 1010.8
20260504031511 10 196 14.5 22.5 0.00 0.00 0.00 73 1010.8
20260504030008 9 186 11.3 16.1 0.00 0.00 0.00 74 1011.0
20260504024506 9 200 6.4 12.9 0.00 0.00 0.00 75 1011.2
20260504023006 10 186 9.7 16.1 0.00 0.00 0.00 73 1011.2
20260504021505 10 183 9.7 16.1 0.00 0.00 0.00 71 1011.3
20260504020005 10 194 9.7 17.7 0.00 0.00 0.00 70 1011.3
20260504014504 10 200 11.3 16.1 0.00 0.00 0.00 69 1011.4
20260504013002 11 201 9.7 16.1 0.00 0.00 0.00 68 1011.4
20260504011501 11 191 8.0 16.1 0.00 0.00 0.00 67 1011.4
20260504010101 11 224 6.4 14.5 0.00 0.00 0.00 66 1011.6
20260504004609 11 256 8.0 16.1 0.00 0.00 0.00 65 1011.7
20260504003059 11 195 12.9 24.1 0.00 0.00 0.00 64 1011.6
20260504001602 11 241 16.1 32.2 0.00 0.00 0.00 65 1011.8
20260504000101 11 232 20.9 30.6 0.00 0.00 0.00 63 1011.9
20260503234557 12 240 16.1 38.6 0.00 0.00 0.00 65 1012.0
20260503233056 12 267 29.0 41.8 0.00 0.00 0.00 62 1011.9
20260503231601 13 269 20.9 38.6 0.00 0.00 0.00 60 1011.8
20260503230108 14 284 32.2 48.3 0.00 0.00 0.00 55 1011.7
20260503224559 15 244 22.5 38.6 0.00 0.00 0.00 39 1011.4
20260503223054 16 240 20.9 40.2 0.00 0.00 0.00 40 1011.5
20260503221553 16 250 27.4 40.2 0.00 0.00 0.00 39 1011.5
20260503220052 16 240 25.7 37.0 0.00 0.00 0.00 39 1011.5
20260503214550 16 236 30.6 43.5 0.00 0.00 0.00 38 1011.5
20260503213056 16 257 27.4 48.3 0.00 0.00 0.00 38 1011.6
20260503211606 16 211 27.4 40.2 0.00 0.00 0.00 38 1011.7
20260503210049 16 238 29.0 49.9 0.00 0.00 0.00 36 1011.9
20260503204546 16 240 22.5 37.0 0.00 0.00 0.00 37 1011.9
20260503203049 17 217 20.9 43.5 0.00 0.00 0.00 36 1012.1
20260503201544 16 245 29.0 46.7 0.00 0.00 0.00 37 1012.2
20260503200054 16 241 29.0 40.2 0.00 0.00 0.00 36 1012.2
20260503194539 16 249 25.7 38.6 0.00 0.00 0.00 37 1012.5
20260503193042 16 250 25.7 40.2 0.00 0.00 0.00 36 1012.6
20260503191542 16 227 24.1 40.2 0.00 0.00 0.00 37 1013.0
20260503190041 16 223 25.7 45.1 0.00 0.00 0.00 37 1013.1
20260503184540 16 227 24.1 43.5 0.00 0.00 0.00 36 1013.4
20260503183030 16 233 25.7 40.2 0.00 0.00 0.00 36 1013.5
20260503181527 16 240 25.7 40.2 0.00 0.00 0.00 38 1013.6
20260503180042 16 238 24.1 41.8 0.00 0.00 0.00 40 1013.8
20260503174529 16 279 27.4 38.6 0.00 0.00 0.00 40 1014.1
20260503173029 16 234 29.0 40.2 0.00 0.00 0.00 38 1014.2
20260503171518 16 233 27.4 37.0 0.00 0.00 0.00 40 1014.3
20260503150106 12 279 19.3 32.2 0.00 0.00 0.00 58 1016.0